Regional Weather Roundup
Issued by NWS Cleveland, OH

Home | Current Version | Previous Version | Graphics & Text | Print | Product List | Glossary On
Versions: 1 2 3 4 5 6 7 8 9 10 11 12 13 14 15 16 17 18 19 20 21 22 23 24 25 26 27 28 29 30 31 32 33 34 35 36 37 38 39 40 41 42 43 44 45 46 47 48 49 50
219
ASUS41 KCLE 220702
RWRCLE
OHIO REGIONAL WEATHER ROUNDUP
NATIONAL WEATHER SERVICE CLEVELAND, OH
300 AM EDT FRI MAY 22 2015

NOTE: "FAIR" INDICATES FEW OR NO CLOUDS BELOW 12,000 FEET WITH NO
SIGNIFICANT WEATHER AND/OR OBSTRUCTIONS TO VISIBILITY.

OHZ001>008-015>018-024>027-034-035-043-044-220800-
   NORTHWEST OHIO

CITY           SKY/WX    TMP DP  RH WIND       PRES   REMARKS
DEFIANCE       MOCLDY    48  38  68 SW5       30.04S
FINDLAY        MOCLDY    47  38  71 SW7       30.04S
TOLEDO EXPRESS CLOUDY    53  35  50 W7        30.02S
TOLEDO EXEC    CLOUDY    52  37  56 SW8       30.03S
LIMA           CLEAR     48  38  68 SW7       30.06S
$$

OHZ009>014-019>023-028>033-038-089-220800-
   NORTHEAST OHIO

CITY           SKY/WX    TMP DP  RH WIND       PRES   REMARKS
CLE-HOPKINS    CLOUDY    50  37  61 SW7       30.04S
CLE-LAKEFRONT  CLOUDY    54  37  52 SW13      30.00F
CUY CO. ARPT   NOT AVBL
LORAIN-ELYRIA  CLOUDY    49  38  65 SW8       30.03S
ASHTABULA      CLOUDY    47  39  74 SW5       29.99F
AKRON-CANTON   CLEAR     46  36  68 SW7       30.04S
WOOSTER        CLEAR     43  36  76 SW6       30.05S
MANSFIELD      CLEAR     46  37  71 SW6       30.05F
YOUNGSTOWN     CLEAR     44  37  76 SW8       30.01S
$$

OHZ042-051>053-060>062-070>072-077>081-220800-
  SOUTHWEST OHIO

CITY           SKY/WX    TMP DP  RH WIND       PRES   REMARKS
CINC-COVINGTON CLEAR     47  41  80 SW5       30.13S
CINC-LUNKEN    CLEAR     40  40 100 CALM      30.15R
HAMILTON       CLEAR     42  41  96 CALM      30.13S
DAYTON         CLEAR     47  41  80 SW9       30.10S
WRIGHT-PAT AFB CLEAR     44  40  86 S2        30.10R
DAYTON GENERAL CLEAR     48  42  80 SW5       30.11R
WILMINGTON     CLEAR     43  39  86 SW7       30.12R
$$

OHZ036-037-039>041-045>050-054>059-063>069-073>076-082>088-220800-
  CENTRAL AND SOUTHEAST OHIO

CITY           SKY/WX    TMP DP  RH WIND       PRES   REMARKS
COLUMBUS       CLEAR     45  41  86 SE3       30.09S
OSU AIRPORT    CLEAR     45  38  76 SW6       30.08S
BOLTON FIELD   NOT AVBL
RICKENBACK AFB NOT AVBL
NEWARK         CLEAR     41  39  93 CALM      30.09R
MARION         CLEAR     45  37  73 SW7       30.07S
LANCASTER      CLEAR     47  40  76 SW6       30.10S
ZANESVILLE     CLEAR     42  38  85 CALM      30.08S
NEW PHILLY     CLEAR     43  39  86 CALM      30.07S FOG
$$



USA.gov is the U.S. government's official web portal to all federal, state and local government web resources and services.